Weather History for Ashland, WI

Change the Weather History Date:

Wednesday, June 19, 2013

  Actual Average Record
Temperature  
Mean Temperature 60 °F -  
Max Temperature 81 °F 74 °F 95 °F (1988)
Min Temperature 39 °F 48 °F 34 °F (1980)
Degree Days  
Heating Degree Days 6    
Growing Degree Days 10 (Base 50)    
Moisture  
Dew Point 50 °F    
Average Humidity 63    
Maximum Humidity 97    
Minimum Humidity 40    
Precipitation  
Precipitation 0.00 in - - ()
Sea Level Pressure  
Sea Level Pressure 30.05 in    
Wind  
Wind Speed 4 mph (SW)    
Max Wind Speed 9 mph    
Max Gust Speed -    
Visibility 10 miles    
Events      
Averages and records for this station are not official NWS values.
T = Trace of Precipitation, MM = Missing Value Source: NWS Daily Summary

Daily Weather History Graph

Daily Weather History Graph

Search for Another Location

Airport:

Trip Planner

Search our weather history database for the weather conditions in past years. The results will help you decide how hot, cold, wet, or windy it might be!

Date:

Astronomy

Jun. 19, 2013 Rise Set
Actual Time 5:10 AM CDT 9:00 PM CDT
Civil Twilight 4:30 AM CDT 9:39 PM CDT
Nautical Twilight 3:37 AM CDT 10:32 PM CDT
Astronomical Twilight 2:19 AM CDT 11:50 PM CDT
Moon 4:43 PM CDT (6/19) 2:07 AM CDT (6/19)
Length of Visible Light 17h 08m
Length of Day
15h 49m
Waxing Gibbous, 80% of the Moon is Illuminated
Jun 19
Waxing Gibbous
Jun 23
Full
Jun 29
Last Quarter
Jul 8
New
Jul 15
First Quarter

Hourly Weather History & Observations

Time (CDT) Temp. Windchill Dew Point Humidity Pressure Visibility Wind Dir Wind Speed Gust Speed Precip Events Conditions
12:53 AM 41.0 °F 39.0 °F 39.9 °F 96% 30.09 in 10.0 mi SSW 3.5 mph - N/A   Clear
1:53 AM 42.1 °F - 39.9 °F 92% 30.09 in 10.0 mi Calm Calm - N/A   Clear
2:53 AM 41.0 °F 38.0 °F 39.0 °F 93% 30.10 in 10.0 mi SSW 4.6 mph - N/A   Clear
3:53 AM 41.0 °F - 39.9 °F 96% 30.09 in 10.0 mi Calm Calm - N/A   Clear
4:53 AM 39.9 °F 37.8 °F 39.0 °F 97% 30.08 in 10.0 mi WSW 3.5 mph - N/A   Clear
5:53 AM 45.0 °F - 42.1 °F 90% 30.10 in 10.0 mi Calm Calm - N/A   Clear
6:53 AM 55.9 °F - 48.9 °F 77% 30.11 in 10.0 mi SSW 6.9 mph - N/A   Clear
7:53 AM 63.0 °F - 48.9 °F 60% 30.11 in 10.0 mi SSW 6.9 mph - N/A   Clear
8:53 AM 66.9 °F - 50.0 °F 54% 30.11 in 10.0 mi SSW 9.2 mph - N/A   Clear
9:53 AM 70.0 °F - 52.0 °F 53% 30.09 in 10.0 mi SSW 5.8 mph - N/A   Clear
10:53 AM 73.0 °F - 54.0 °F 51% 30.08 in 10.0 mi SW 6.9 mph - N/A   Clear
11:53 AM 73.9 °F - 54.0 °F 50% 30.07 in 10.0 mi WSW 5.8 mph - N/A   Scattered Clouds
12:53 PM 77.0 °F - 54.0 °F 45% 30.05 in 10.0 mi WSW 6.9 mph - N/A   Clear
1:53 PM 79.0 °F - 53.1 °F 40% 30.03 in 10.0 mi Variable 3.5 mph - N/A   Clear
2:53 PM 79.0 °F - 53.1 °F 40% 30.01 in 10.0 mi Variable 5.8 mph - N/A   Partly Cloudy
3:53 PM 78.1 °F - 52.0 °F 40% 30.01 in 10.0 mi SW 9.2 mph - N/A   Overcast
4:53 PM 77.0 °F - 53.1 °F 43% 30.00 in 10.0 mi SW 6.9 mph - N/A   Partly Cloudy
5:53 PM 80.1 °F - 54.0 °F 40% 29.99 in 10.0 mi WSW 8.1 mph - N/A   Partly Cloudy
6:53 PM 78.1 °F - 55.0 °F 45% 29.98 in 10.0 mi SW 6.9 mph - N/A   Clear
7:53 PM 73.9 °F - 55.9 °F 53% 29.98 in 10.0 mi SSW 4.6 mph - N/A   Clear
8:53 PM 70.0 °F - 55.0 °F 59% 29.98 in 10.0 mi South 4.6 mph - N/A   Clear
9:53 PM 66.0 °F - 55.9 °F 70% 30.00 in 10.0 mi South 3.5 mph - N/A   Clear
10:53 PM 66.9 °F - 55.0 °F 66% 30.01 in 10.0 mi South 5.8 mph - N/A   Clear
11:53 PM 66.0 °F - 55.9 °F 70% 30.01 in 10.0 mi South 5.8 mph - N/A   Clear